Terminal Aerodrome Forecast
Issued by NWS Charleston, WV

Current Version | Previous Version | Graphics & Text | Print | Product List | Glossary On
Versions: 1 2 3 4 5 6 7 8 9 10 11 12 13 14 15 16 17 18 19 20 21 22 23 24 25 26 27 28 29 30 31 32 33 34 35
000
FTUS41 KRLX 231600 AAC
TAFBKW
TAF AMD
KBKW 231609Z 2316/2412 33008G18KT P6SM BKN018
     FM231700 33008G18KT P6SM BKN020
     FM232200 32006KT P6SM BKN035
     FM240300 32004KT P6SM SKC=

USA.gov is the U.S. government's official web portal to all federal, state and local government web resources and services.